When you browse on this site, cookies collect data to enhance your experience and personalize the content and advertising you see.
Visit our Privacy Policy to learn more. By continuing to use the site, you agree to this use of cookies and data.
  • In Hungary
  • List of Countries
  • For 7 days
  • Water Temperature
  • Satellite Maps
  • Weather Map
  • News
  • Weather Widgets
  • user-avatar
    Login

    Hourly Weather Miloradzice

    Today, 26 May, Sunday

    Time Temperature Precipitation Wind Pressure Humidity
    00:00 +10°C° 0 mm 2 mps 750 mmHg 90%
    01:00 +10°C° 0 mm 1 mps 750 mmHg 93%
    02:00 +10°C° 0 mm 1 mps 750 mmHg 93%
    03:00 +10°C° 0 mm 1 mps 750 mmHg 94%
    04:00 +8°C° 0 mm 2 mps 750 mmHg 95%
    05:00 +10°C° 0 mm 2 mps 750 mmHg 89%
    06:00 +13°C° 0 mm 2 mps 750 mmHg 84%
    07:00 +14°C° 0 mm 3 mps 750 mmHg 77%
    08:00 +16°C° 0 mm 3 mps 750 mmHg 71%
    09:00 +17°C° 0 mm 3 mps 749 mmHg 65%
    10:00 +19°C° 0 mm 4 mps 749 mmHg 59%
    11:00 +20°C° 0 mm 4 mps 749 mmHg 56%
    12:00 +21°C° 0 mm 5 mps 748 mmHg 53%
    13:00 +22°C° 0 mm 5 mps 748 mmHg 50%
    14:00 +22°C° 0 mm 5 mps 748 mmHg 51%
    15:00 +22°C° 0 mm 5 mps 748 mmHg 51%
    16:00 +22°C° 0 mm 5 mps 747 mmHg 52%
    17:00 +21°C° 0 mm 4 mps 747 mmHg 58%
    18:00 +20°C° 0 mm 3 mps 747 mmHg 64%
    19:00 +19°C° 0 mm 2 mps 747 mmHg 70%
    20:00 +17°C° 0 mm 2 mps 747 mmHg 73%
    21:00 +16°C° 0 mm 2 mps 747 mmHg 76%
    22:00 +15°C° 0 mm 2 mps 747 mmHg 79%
    23:00 +15°C° 0 mm 2 mps 747 mmHg 81%

    Tomorrow, 27 May, Monday

    Time Temperature Precipitation Wind Pressure Humidity
    00:00 +13°C° 0 mm 3 mps 747 mmHg 82%
    01:00 +13°C° 0 mm 3 mps 746 mmHg 83%
    02:00 +13°C° 0 mm 3 mps 746 mmHg 84%
    03:00 +13°C° 0 mm 3 mps 746 mmHg 84%
    04:00 +13°C° 0 mm 3 mps 746 mmHg 85%
    05:00 +14°C° 0 mm 3 mps 746 mmHg 80%
    06:00 +17°C° 0 mm 3 mps 746 mmHg 75%
    07:00 +19°C° 0 mm 4 mps 746 mmHg 70%
    08:00 +20°C° 0 mm 4 mps 746 mmHg 64%
    09:00 +21°C° 0 mm 4 mps 746 mmHg 59%
    10:00 +23°C° 0 mm 4 mps 746 mmHg 53%
    11:00 +23°C° 0 mm 4 mps 745 mmHg 51%
    12:00 +25°C° 0 mm 4 mps 745 mmHg 49%
    13:00 +26°C° 0 mm 4 mps 745 mmHg 47%
    14:00 +26°C° 0 mm 3 mps 745 mmHg 47%
    15:00 +26°C° 0 mm 3 mps 744 mmHg 48%
    16:00 +26°C° 0 mm 3 mps 744 mmHg 49%
    17:00 +24°C° 0.2 mm 3 mps 744 mmHg 60%
    18:00 +21°C° 0.2 mm 3 mps 744 mmHg 70%
    19:00 +19°C° 0.2 mm 3 mps 744 mmHg 81%
    20:00 +19°C° 0.1 mm 2 mps 744 mmHg 84%
    21:00 +19°C° 0.1 mm 1 mps 744 mmHg 87%
    22:00 +18°C° 0.1 mm 1 mps 744 mmHg 89%
    23:00 +16°C° 0.3 mm 1 mps 743 mmHg 91%

    Day after tomorrow, 28 May, Tuesday

    Time Temperature Precipitation Wind Pressure Humidity
    00:00 +15°C° 0.3 mm 0 mps 743 mmHg 92%
    01:00 +15°C° 0.3 mm 0 mps 743 mmHg 93%
    02:00 +15°C° 2 mm 0 mps 742 mmHg 94%
    03:00 +16°C° 2 mm 1 mps 742 mmHg 96%
    04:00 +16°C° 2 mm 1 mps 742 mmHg 97%
    05:00 +15°C° 3.3 mm 2 mps 742 mmHg 97%
    06:00 +15°C° 3.3 mm 2 mps 742 mmHg 97%
    07:00 +14°C° 3.3 mm 3 mps 741 mmHg 97%
    08:00 +14°C° 2.4 mm 3 mps 741 mmHg 97%
    09:00 +14°C° 2.4 mm 4 mps 742 mmHg 96%
    10:00 +14°C° 2.4 mm 5 mps 742 mmHg 96%
    11:00 +13°C° 2.2 mm 5 mps 742 mmHg 96%
    12:00 +13°C° 2.2 mm 6 mps 742 mmHg 95%
    13:00 +11°C° 2.2 mm 6 mps 742 mmHg 95%
    14:00 +11°C° 1.4 mm 6 mps 742 mmHg 95%
    15:00 +10°C° 1.4 mm 6 mps 742 mmHg 95%
    16:00 +10°C° 1.4 mm 6 mps 742 mmHg 94%
    17:00 +10°C° 1 mm 5 mps 743 mmHg 95%
    18:00 +11°C° 1 mm 4 mps 743 mmHg 95%
    19:00 +11°C° 1 mm 3 mps 743 mmHg 95%
    20:00 +10°C° 0 mm 3 mps 744 mmHg 95%
    21:00 +10°C° 0 mm 3 mps 744 mmHg 96%
    22:00 +10°C° 0 mm 3 mps 745 mmHg 96%
    23:00 +9°C° 0 mm 3 mps 745 mmHg 96%

    29 May, Wednesday

    Time Temperature Precipitation Wind Pressure Humidity
    00:00 +9°C° 0 mm 3 mps 745 mmHg 97%
    01:00 +9°C° 0 mm 2 mps 745 mmHg 97%
    02:00 +8°C° 0 mm 2 mps 746 mmHg 97%
    03:00 +8°C° 0 mm 2 mps 746 mmHg 96%
    04:00 +8°C° 0 mm 2 mps 746 mmHg 96%
    05:00 +8°C° 0 mm 2 mps 747 mmHg 93%
    06:00 +9°C° 0 mm 3 mps 747 mmHg 90%
    07:00 +9°C° 0 mm 3 mps 748 mmHg 87%
    08:00 +10°C° 0 mm 3 mps 748 mmHg 82%
    09:00 +12°C° 0 mm 3 mps 749 mmHg 77%
    10:00 +13°C° 0 mm 3 mps 749 mmHg 72%
    11:00 +14°C° 0 mm 3 mps 749 mmHg 68%
    12:00 +15°C° 0 mm 4 mps 750 mmHg 64%
    13:00 +17°C° 0 mm 4 mps 750 mmHg 60%
    14:00 +17°C° 0 mm 4 mps 750 mmHg 61%
    15:00 +17°C° 0 mm 3 mps 750 mmHg 61%
    16:00 +17°C° 0 mm 3 mps 750 mmHg 61%
    17:00 +16°C° 0 mm 3 mps 751 mmHg 66%
    18:00 +14°C° 0 mm 3 mps 751 mmHg 70%
    19:00 +13°C° 0 mm 3 mps 752 mmHg 75%
    20:00 +12°C° 0 mm 3 mps 752 mmHg 75%
    21:00 +11°C° 0 mm 3 mps 753 mmHg 75%
    22:00 +10°C° 0 mm 3 mps 754 mmHg 74%
    23:00 +9°C° 0 mm 2 mps 754 mmHg 75%

    30 May, Thursday

    Time Temperature Precipitation Wind Pressure Humidity
    00:00 +8°C° 0 mm 2 mps 754 mmHg 76%
    01:00 +7°C° 0 mm 2 mps 755 mmHg 77%
    02:00 +6°C° 0 mm 2 mps 755 mmHg 79%
    03:00 +6°C° 0 mm 2 mps 755 mmHg 82%
    04:00 +6°C° 0 mm 1 mps 755 mmHg 84%
    05:00 +8°C° 0 mm 1 mps 756 mmHg 79%
    06:00 +9°C° 0 mm 1 mps 756 mmHg 73%
    07:00 +11°C° 0 mm 1 mps 756 mmHg 68%
    08:00 +12°C° 0 mm 1 mps 756 mmHg 62%
    09:00 +14°C° 0 mm 1 mps 756 mmHg 55%
    10:00 +15°C° 0 mm 1 mps 756 mmHg 49%
    11:00 +18°C° 0 mm 1 mps 756 mmHg 48%
    12:00 +19°C° 0 mm 1 mps 755 mmHg 46%
    13:00 +20°C° 0 mm 1 mps 755 mmHg 44%
    14:00 +18°C° 0 mm 0 mps 755 mmHg 44%
    15:00 +18°C° 0 mm 0 mps 754 mmHg 43%
    16:00 +18°C° 0 mm 0 mps 754 mmHg 43%
    17:00 +19°C° 0 mm 1 mps 754 mmHg 50%
    18:00 +17°C° 0 mm 2 mps 754 mmHg 57%
    19:00 +16°C° 0 mm 2 mps 754 mmHg 65%
    20:00 +14°C° 0 mm 2 mps 754 mmHg 66%
    21:00 +12°C° 0 mm 3 mps 754 mmHg 68%
    22:00 +11°C° 0 mm 3 mps 754 mmHg 69%
    23:00 +11°C° 0 mm 3 mps 753 mmHg 70%

    31 May, Friday

    Time Temperature Precipitation Wind Pressure Humidity
    00:00 +11°C° 0 mm 3 mps 753 mmHg 71%
    01:00 +11°C° 0 mm 3 mps 753 mmHg 72%
    02:00 +11°C° 0 mm 3 mps 752 mmHg 72%
    03:00 +11°C° 0 mm 3 mps 752 mmHg 72%
    04:00 +12°C° 0 mm 3 mps 752 mmHg 71%
    05:00 +12°C° 0 mm 3 mps 751 mmHg 75%
    06:00 +13°C° 0 mm 3 mps 751 mmHg 79%
    07:00 +14°C° 0 mm 3 mps 751 mmHg 83%
    08:00 +14°C° 0.4 mm 4 mps 751 mmHg 84%
    09:00 +15°C° 0.4 mm 4 mps 752 mmHg 86%
    10:00 +15°C° 0.4 mm 5 mps 752 mmHg 88%
    11:00 +14°C° 1.3 mm 5 mps 752 mmHg 88%
    12:00 +12°C° 1.3 mm 5 mps 753 mmHg 89%
    13:00 +10°C° 1.3 mm 5 mps 753 mmHg 89%
    14:00 +13°C° 0.1 mm 4 mps 754 mmHg 79%
    15:00 +14°C° 0.1 mm 4 mps 754 mmHg 70%
    16:00 +17°C° 0.1 mm 4 mps 755 mmHg 60%
    17:00 +15°C° 0 mm 4 mps 755 mmHg 62%
    18:00 +14°C° 0 mm 4 mps 756 mmHg 64%
    19:00 +13°C° 0 mm 3 mps 756 mmHg 66%
    20:00 +11°C° 0 mm 3 mps 757 mmHg 70%
    21:00 +10°C° 0 mm 3 mps 757 mmHg 74%
    22:00 +9°C° 0 mm 3 mps 758 mmHg 78%
    23:00 +8°C° 0 mm 3 mps 758 mmHg 81%
    Show more